TimeEST,TemperatureF,Dew PointF,Humidity,Sea Level PressureIn,VisibilityMPH,Wind Direction,Wind SpeedMPH,Gust SpeedMPH,PrecipitationIn,Events,Conditions,WindDirDegrees,DateUTC
12:54 AM,39.0,25.0,57,30.01,10.0,West,15.0,29.9,N/A,,Overcast,270,2013-02-12 05:54:00
1:54 AM,37.9,25.0,60,30.01,10.0,West,13.8,21.9,N/A,,Overcast,280,2013-02-12 06:54:00
2:54 AM,37.0,25.0,62,30.03,10.0,West,11.5,21.9,N/A,,Overcast,280,2013-02-12 07:54:00
3:54 AM,35.1,25.0,67,30.04,10.0,West,18.4,25.3,N/A,,Overcast,260,2013-02-12 08:54:00
4:52 AM,33.8,24.8,70,30.04,10.0,West,15.0,19.6,N/A,,Overcast,260,2013-02-12 09:52:00
4:54 AM,34.0,25.0,70,30.06,10.0,West,11.5,19.6,N/A,,Overcast,260,2013-02-12 09:54:00
5:54 AM,34.0,24.1,67,30.07,10.0,WNW,9.2,-,N/A,,Overcast,290,2013-02-12 10:54:00
6:54 AM,33.1,24.1,70,30.09,10.0,West,6.9,-,N/A,,Overcast,280,2013-02-12 11:54:00
7:54 AM,33.1,24.1,70,30.11,10.0,West,6.9,-,N/A,,Overcast,270,2013-02-12 12:54:00
8:54 AM,33.1,24.1,70,30.12,10.0,West,8.1,-,N/A,,Overcast,270,2013-02-12 13:54:00
9:54 AM,34.0,24.1,67,30.12,10.0,West,9.2,-,N/A,,Overcast,260,2013-02-12 14:54:00
10:54 AM,35.1,25.0,67,30.12,10.0,West,5.8,-,N/A,,Mostly Cloudy,270,2013-02-12 15:54:00
11:34 AM,35.6,24.8,65,30.08,10.0,WSW,4.6,-,N/A,,Scattered Clouds,240,2013-02-12 16:34:00
11:54 AM,37.9,26.1,62,30.08,10.0,SW,5.8,-,N/A,,Clear,230,2013-02-12 16:54:00
12:54 PM,39.9,26.1,58,30.07,10.0,WSW,12.7,16.1,N/A,,Clear,250,2013-02-12 17:54:00
1:54 PM,41.0,26.1,55,29.98,10.0,SW,5.8,-,N/A,,Clear,230,2013-02-12 18:54:00
2:54 PM,43.0,26.1,51,30.01,10.0,WSW,12.7,-,N/A,,Clear,240,2013-02-12 19:54:00
3:54 PM,44.1,27.0,51,30.01,10.0,SW,12.7,-,N/A,,Clear,230,2013-02-12 20:54:00
4:54 PM,45.0,27.0,49,30.01,10.0,WSW,9.2,-,N/A,,Clear,240,2013-02-12 21:54:00
5:54 PM,43.0,26.1,51,29.99,10.0,SW,5.8,-,N/A,,Clear,230,2013-02-12 22:54:00
6:54 PM,39.9,26.1,58,29.96,10.0,South,3.5,-,N/A,,Clear,180,2013-02-12 23:54:00
7:54 PM,32.0,27.0,82,29.96,10.0,Calm,Calm,-,N/A,,Clear,0,2013-02-13 00:54:00
8:54 PM,32.0,27.0,82,29.95,10.0,Calm,Calm,-,N/A,,Clear,0,2013-02-13 01:54:00
9:54 PM,30.9,27.0,85,29.94,10.0,Calm,Calm,-,N/A,,Clear,0,2013-02-13 02:54:00
10:54 PM,30.0,25.0,82,29.94,10.0,Calm,Calm,-,N/A,,Clear,0,2013-02-13 03:54:00
11:54 PM,28.9,26.1,89,29.94,10.0,Calm,Calm,-,N/A,,Clear,0,2013-02-13 04:54:00